+ View the NASA Portal
+ Center for Near-Earth Object Studies
IMPORTANT:
The SSD Announcement email list is now available. Major changes are coming in the near future, including possible hostname and/or URL changes. To be notified of such changes, subscribe to this email list.
Please visit
this page
for more details.
Don't show this message again
JPL Small-Body Database Browser
Search:
[
help
]
441914 (2010 FL101)
Classification:
Main-belt Asteroid
SPK-ID:
2441914
[
Ephemeris
|
Orbit Diagram
|
Orbital Elements
|
Mission Design
|
Physical Parameters
|
Discovery Circumstances
]
[ show orbit diagram ]
Orbital Elements at Epoch 2458600.5 (2019-Apr-27.0) TDB
Reference:
JPL 20
(heliocentric ecliptic J2000)
Element
Value
Uncertainty (1-sigma)
Units
e
.09140685604882687
6.5927e-08
a
2.853972324467171
6.3406e-08
au
q
2.593099687037265
2.211e-07
au
i
15.75891223834556
6.863e-06
deg
node
88.64665225143817
2.5232e-05
deg
peri
81.45633289926356
5.1803e-05
deg
M
335.1028487978343
4.2908e-05
deg
t
p
2458722.292408508967
(2019-Aug-26.79240851)
0.00021086
TDB
period
1761.055580504091
4.82
5.8687e-05
1.607e-07
d
yr
n
.2044228495598943
6.8124e-09
deg/d
Q
3.114844961897077
6.9202e-08
au
Orbit Determination Parameters
# obs. used (total)
186
data-arc span
5579 days (15.27 yr)
first obs. used
2003-12-22
last obs. used
2019-04-01
planetary ephem.
DE431
SB-pert. ephem.
SB431-N16
condition code
0
norm. resid. RMS
.55113
source
ORB
producer
Otto Matic
solution date
2019-Jul-14 15:26:31
Additional Information
Earth MOID
= 1.65815 au
Jupiter MOID
= 2.09157 au
T_jup
= 3.243
[ show covariance matrix ]
[
Ephemeris
|
Orbit Diagram
|
Orbital Elements
|
Mission Design
|
Physical Parameters
|
Discovery Circumstances
]
Physical Parameter Table
Parameter
Symbol
Value
Units
Sigma
Reference
Notes
absolute magnitude
H
15.8
n/a
MPO437717
441914 (2010 FL101)
Discovered 2010-Mar-16 by CSS at Catalina
Reference:
Last Updated:
2015-09-02
[
Ephemeris
|
Orbit Diagram
|
Orbital Elements
|
Mission Design
|
Physical Parameters
|
Discovery Circumstances
]
2019-Dec-13 03:01 UT
(server date/time)
Site Manager:
Ryan S. Park
Webmaster
:
Alan B. Chamberlin